Home   Weather   Buenos Aires   Past weeks
Flag for Argentina

Past Weather in Buenos Aires, Argentina — Yesterday and Last 2 Weeks

Now
59 °F

Clear.


Feels Like: 57 °F
Forecast: 65 / 57 °F
Wind: 9 mph from Northwest

Location: Buenos Aires Airport

Current Time: May 26, 2019 at 3:13:49 am

Latest Report: May 26, 2019 at 2:00 am


Visibility: 10 mi

Pressure: 29.92 "Hg

Humidity: 82%

Dew Point: 54 °F

Location of Buenos AiresLocation

Past Weather in Buenos Aires — Graph

°F

Buenos Aires Temperature Yesterday

Maximum temperature yesterday: 64 °F (at 2:00 pm)
Minimum temperature yesterday: 52 °F (at 5:00 am)
Average temperature yesterday: 58 °F

High & Low Weather Summary for the Past Weeks

 TemperatureHumidityPressure
High75 °F (May 13, 3:00 pm)94% (May 18, 11:00 pm)30.45 "Hg (May 18, 11:00 pm)
Low50 °F (May 23, 6:00 am)34% (May 23, 4:00 pm)29.86 "Hg (May 11, 2:00 am)
Average61 °F72%30.11 "Hg
* Reported May 11 2:00 am — May 26 2:00 am, Buenos Aires. Weather by CustomWeather, © 2019

Note: Actual official high and low records may vary slightly from our data, if they occured in-between our weather recording intervals... More about our weather records

Advertising

Buenos Aires Weather History for the Previous 24 Hours

Scroll right to see more
 ConditionsComfort  
Time TempWeatherWind HumidityBarometerVisibility
2:00 am
Sun, May 26
59 °FClear.9 mph82%29.92 "Hg10 mi
1:00 am59 °FClear.9 mph82%29.92 "Hg10 mi
12:00 am61 °FClear.12 mph72%29.92 "Hg10 mi
11:00 pm
Sat, May 25
61 °FClear.12 mph77%29.89 "Hg10 mi
10:00 pm61 °FClear.9 mph77%29.92 "Hg10 mi
9:00 pm61 °FClear.6 mph77%29.92 "Hg10 mi
8:00 pm61 °FClear.8 mph77%29.92 "Hg10 mi
7:00 pm61 °FPassing clouds.6 mph77%29.92 "HgN/A
6:00 pm59 °FClear.6 mph77%29.92 "Hg10 mi
5:00 pm61 °FSunny.10 mph72%29.92 "Hg10 mi
4:00 pm63 °FSunny.10 mph68%29.92 "Hg10 mi
3:00 pm64 °FSunny.10 mph64%29.92 "Hg10 mi
2:00 pm64 °FSunny.9 mph64%29.95 "Hg10 mi
1:00 pm63 °FSunny.8 mph68%29.95 "Hg10 mi
12:00 pm61 °FSunny.10 mph68%29.98 "Hg10 mi
11:00 am61 °FSunny.10 mph63%30.01 "Hg10 mi
10:00 am57 °FSunny.10 mph72%30.01 "Hg10 mi
9:00 am55 °FSunny.6 mph72%30.01 "Hg10 mi
8:00 am52 °FSunny.9 mph77%29.98 "Hg10 mi
7:00 am54 °FClear.8 mph72%29.95 "Hg10 mi
6:00 am54 °FClear.9 mph72%29.95 "Hg10 mi
5:00 am52 °FClear.7 mph77%29.95 "Hg10 mi
4:00 am55 °FPassing clouds.5 mph63%29.95 "HgN/A
3:00 am55 °FClear.3 mph63%29.98 "Hg10 mi
Weather by CustomWeather, © 2019

See weather overview